GFSNE_con_3kmhel_159.txt.gz
Helicity
31 54 31 37 38 40 47 48 59 -27 9 85 195 208 142 105 184 203 203 208 178 197 209 189 114 250 31 125 222 237 188 186 202 180 156 142 161 167
-20 38 54 51 39 15 21 30 58 59 12 32 158 255 170 89 141 132 106 241 333 209 188 212 159 156 76 185 196 249 237 192 192 197 187 185 182 165
-27 -23 29 42 38 22 22 52 64 73 38 15 52 66 164 223 247 199 232 240 308 406 274 110 76 124 97 101 159 280 287 265 225 207 207 191 195 177
-5 -15 -29 11 55 37 -6 12 76 119 52 86 60 108 164 311 340 351 307 301 298 393 416 415 421 314 224 167 172 85 173 243 291 274 238 225 203 199
-3 -19 -24 -15 1 33 42 15 57 135 221 80 106 93 105 353 320 332 385 387 359 365 392 430 457 433 468 304 281 265 127 -13 139 295 335 298 279 245
26 14 -11 -19 -13 -33 7 12 28 59 218 277 321 263 236 273 277 246 331 449 501 381 393 422 449 489 414 398 401 214 164 91 -3 22 245 305 337 316
49 39 37 31 27 17 -45 8 12 11 64 267 570 565 520 476 362 477 236 270 343 541 437 392 316 323 374 443 465 408 341 187 183 32 -15 94 199 343
76 66 55 86 54 53 49 63 61 50 36 72 211 531 502 546 339 212 261 193 275 470 347 376 389 401 429 368 306 293 364 440 459 378 225 59 72 167
28 49 62 57 75 47 54 61 74 115 68 -1 91 228 307 545 434 341 357 297 385 497 314 443 471 401 435 415 448 428 396 458 526 501 522 486 632 318
24 22 50 59 62 50 52 51 61 68 79 37 23 97 222 270 284 230 244 199 298 425 407 318 436 422 393 336 398 402 399 462 497 589 614 630 852 415
18 31 23 47 101 98 58 77 85 107 88 127 120 123 161 259 279 288 308 234 245 332 456 231 308 240 293 320 339 378 388 421 436 505 623 648 731 581
-8 2 87 57 98 118 53 57 86 115 135 171 182 193 222 213 256 219 264 262 176 229 371 220 266 209 169 228 219 233 244 330 358 375 455 534 636 613
-11 -0 8 82 90 90 77 25 37 32 74 94 114 157 193 211 222 236 211 162 191 231 268 134 223 186 138 121 120 190 205 263 290 273 327 339 401 497
-25 -10 14 74 76 100 60 94 91 68 70 77 95 130 142 158 166 169 181 132 132 158 243 224 113 185 121 116 137 162 105 151 191 247 233 216 257 340
41 62 69 77 71 48 102 100 76 56 47 61 81 83 91 91 112 149 147 115 124 170 199 226 211 192 127 96 48 107 75 101 170 174 191 158 118 189
64 70 68 70 56 40 41 60 52 46 36 37 47 47 63 96 126 123 113 137 105 154 161 186 197 174 123 75 74 87 113 103 167 180 174 157 98 86
58 80 84 67 71 64 51 42 40 35 45 49 47 61 71 75 79 87 82 73 63 115 147 171 184 137 77 86 53 110 112 93 143 161 142 140 144 147
68 67 68 62 55 47 45 44 37 30 23 21 32 40 53 71 80 69 57 53 64 80 97 115 148 140 85 66 93 92 93 101 105 129 159 146 165 211
80 72 68 62 54 55 49 42 39 31 25 20 5 12 16 23 43 48 57 67 74 65 65 66 78 81 108 88 45 92 68 89 119 125 120 129 146 207
83 73 61 63 69 66 62 60 66 76 58 34 13 1 -6 -1 2 16 26 20 34 44 49 54 72 94 69 87 108 83 95 68 81 106 130 134 126 132
81 81 74 69 68 61 65 66 70 73 79 52 38 12 -6 -27 -30 -22 -9 4 4 5 11 28 44 49 30 44 56 78 67 89 58 70 101 115 124 135
79 76 74 72 73 66 66 78 77 86 83 65 52 31 20 -8 -21 -17 -15 -12 -9 -19 -15 -3 11 13 9 4 46 106 139 121 120 87 50 58 77 113
80 81 77 86 81 74 70 78 79 74 68 58 42 20 11 1 -6 -16 -9 -8 -6 -7 4 10 7 7 -4 -2 21 43 82 124 121 160 172 109 82 15

GFSNE_con_3kmhel_162.txt.gz
Helicity
-40 -37 -43 -24 9 42 29 11 -5 0 53 169 177 196 232 234 214 155 228 211 185 173 208 171 144 137 221 131 66 58 123 176 191 190 195 243 225 105
-25 -15 -29 -43 -39 -2 33 33 20 -2 34 97 121 175 291 235 197 120 123 207 310 236 177 216 188 145 133 185 168 151 131 153 156 190 184 194 220 230
6 0 -6 -29 -32 -35 -8 13 21 18 15 18 10 72 125 235 327 277 193 194 230 338 310 312 336 283 254 208 197 196 115 124 206 198 207 193 183 182
16 28 33 9 3 -22 -53 -42 -44 -16 19 23 7 53 172 254 384 324 293 287 301 408 476 513 538 508 508 416 441 360 285 132 150 247 212 216 202 177
-7 4 15 11 12 -5 -9 -26 -54 -75 -39 -21 -9 102 177 260 392 393 275 391 339 347 393 496 515 516 528 513 502 426 337 257 150 231 -23 118 253 205
-2 -11 -3 -6 1 -10 -15 -11 -11 -25 -30 -10 24 61 207 328 309 430 264 366 415 509 465 459 461 506 513 608 475 436 374 389 366 329 272 118 73 261
16 9 3 21 16 9 -30 -15 -7 -22 -24 -19 25 41 154 359 325 398 419 315 536 679 603 585 492 444 476 528 427 375 323 224 214 350 483 325 51 78
49 47 31 44 18 11 15 18 26 2 -18 -42 -13 37 156 307 362 384 403 268 280 459 391 672 547 576 478 497 481 454 455 357 257 205 257 322 175 107
15 36 52 53 47 26 20 32 40 80 35 -29 -28 32 63 189 323 331 399 298 405 454 475 501 392 315 348 302 424 319 358 318 293 270 200 319 352 305
0 -1 26 50 62 37 22 28 17 18 49 22 20 2 20 76 122 157 194 239 277 378 426 371 509 390 260 272 351 332 298 311 350 334 284 287 402 445
15 -1 0 27 88 88 46 42 51 52 32 73 82 106 119 164 163 166 161 171 205 228 353 250 268 242 233 254 241 272 285 269 285 314 313 354 336 344
7 12 61 42 78 91 41 36 34 59 71 95 104 111 133 164 213 168 149 86 88 113 276 200 241 200 148 135 217 266 274 358 348 343 332 329 373 269
-1 4 -7 54 62 72 60 17 16 7 39 41 57 80 96 111 129 113 84 78 82 81 195 106 210 210 144 124 128 203 218 272 290 300 316 297 261 262
26 6 11 59 55 69 45 80 83 40 26 27 47 72 91 110 106 99 96 54 35 55 133 140 44 120 116 125 157 203 164 211 248 277 292 277 274 252
52 64 76 81 73 38 69 72 55 44 30 26 26 40 43 39 66 96 89 56 80 126 140 169 122 115 59 44 36 122 108 115 195 209 201 204 201 231
69 71 63 69 59 44 40 47 34 26 19 20 27 30 41 72 88 93 85 109 81 135 138 160 155 119 62 38 46 94 106 89 156 167 181 145 142 161
56 69 80 67 68 65 52 49 43 45 46 41 39 45 46 57 62 69 64 70 49 101 143 159 157 81 37 44 57 87 118 119 145 156 148 158 144 151
72 59 59 56 50 43 41 43 41 43 37 32 31 25 26 38 43 38 43 38 47 65 80 100 125 92 43 20 63 75 80 99 126 142 135 156 155 181
77 72 66 58 48 49 50 49 37 28 30 31 25 29 29 31 26 45 59 51 30 34 38 52 69 80 89 76 12 31 74 87 108 118 113 116 157 198
86 80 70 69 66 65 63 55 50 51 53 43 35 30 23 28 25 34 29 25 41 43 40 44 49 58 43 56 73 93 85 61 80 108 112 114 117 130
85 82 75 78 71 68 61 54 49 51 52 33 33 21 7 6 14 18 22 22 16 22 36 53 65 54 24 16 31 75 97 87 75 80 91 105 122 129
84 85 82 77 74 73 66 64 59 63 61 52 28 9 -1 -3 1 7 -2 -5 -2 -7 1 13 28 33 29 41 72 93 106 115 113 83 64 51 90 131
87 87 84 85 78 71 71 71 72 58 58 51 40 29 17 8 1 -10 -7 -7 -8 -7 4 8 7 12 9 12 29 56 98 118 121 183 155 91 47 45

GFSNE_con_3kmhel_165.txt.gz
Helicity
-2 -8 -34 -50 -62 -72 -62 -46 11 77 106 64 74 198 245 197 250 282 103 115 262 243 155 142 138 147 167 179 209 238 231 2 126 172 156 157 236 249
-5 3 -6 -19 -33 -47 -72 -76 -56 -24 37 30 62 70 160 166 208 280 113 134 267 300 213 164 157 158 170 146 196 220 263 134 69 113 158 178 229 235
7 7 12 -6 -14 -18 -32 -47 -61 -45 -9 7 0 56 78 137 240 210 148 121 209 393 334 291 256 191 222 222 202 206 204 153 87 134 87 161 196 202
5 9 13 3 4 5 -5 -4 -31 -55 -28 -2 13 42 106 150 208 168 157 176 249 437 450 364 420 453 497 484 463 392 347 266 242 178 136 197 131 152
-15 -9 -4 -3 10 8 2 -2 -8 -39 -66 -78 -42 5 92 164 204 239 150 198 226 388 501 387 403 473 529 593 633 587 438 414 347 280 272 158 117 202
-15 -24 -8 -10 -5 -1 -4 17 20 -11 -28 -56 -64 -17 47 147 108 220 251 136 272 426 471 423 426 535 500 623 622 593 524 457 420 293 313 273 184 190
-8 -7 4 12 -2 -1 -22 -1 17 15 15 9 -16 -32 43 125 170 160 189 204 326 456 415 516 436 468 517 586 629 544 540 457 508 497 448 388 408 285
31 20 16 33 6 1 8 12 28 11 16 24 32 37 25 56 63 91 136 113 177 450 378 429 417 544 417 714 672 519 530 362 416 399 380 300 264 206
23 26 25 26 28 -6 -2 3 11 41 14 10 27 56 50 25 43 67 103 128 154 325 516 486 669 561 636 600 610 675 687 451 534 342 378 418 366 331
19 32 32 41 54 24 10 14 11 10 30 15 20 26 50 68 19 30 68 82 96 154 167 235 330 391 358 438 537 517 457 495 527 452 432 341 221 295
27 32 35 41 68 59 28 22 4 9 -2 37 45 60 77 124 143 54 142 106 83 95 161 76 122 207 261 351 458 584 449 520 518 356 433 387 250 178
28 27 58 51 65 74 31 18 9 11 20 33 44 52 68 90 132 101 84 74 78 64 140 79 98 119 98 60 154 247 289 414 298 336 388 373 366 250
35 34 40 58 60 60 49 14 2 -22 2 3 6 14 22 37 56 65 51 48 51 29 83 29 66 71 58 87 91 153 177 267 300 264 318 358 332 316
47 47 43 60 56 68 44 57 57 16 1 6 21 36 37 43 36 16 28 19 5 29 71 67 -7 36 47 54 100 178 164 179 216 280 267 267 270 256
66 65 62 63 57 44 70 69 53 29 16 12 9 13 21 16 26 26 23 -23 2 45 59 95 45 33 23 13 24 87 165 132 189 211 237 219 231 230
62 67 60 52 48 37 43 49 38 33 28 19 10 3 9 33 46 55 49 53 26 45 54 70 61 56 48 20 39 52 86 82 115 120 139 133 119 130
61 70 67 61 65 61 48 46 49 50 49 41 36 32 32 38 44 50 49 47 35 57 79 82 78 22 12 50 52 61 88 84 110 130 116 130 127 129
86 87 83 75 74 66 61 50 49 55 52 45 41 37 33 39 42 37 40 39 50 63 66 77 78 54 0 -28 40 72 70 84 101 109 109 133 131 149
102 97 90 80 70 64 59 58 53 48 41 43 40 45 35 37 44 40 46 44 32 42 44 54 71 69 66 75 9 31 78 75 97 88 96 107 132 139
114 108 102 90 77 71 66 63 53 49 52 45 41 43 41 41 43 48 44 47 40 41 37 44 53 63 58 69 67 61 50 54 80 98 102 94 98 104
119 115 95 92 86 78 71 64 59 55 52 44 41 34 30 28 31 28 26 34 37 38 43 40 45 28 3 2 43 74 81 73 61 53 97 120 120 116
127 115 104 95 89 82 75 64 58 56 55 48 39 33 25 17 14 12 10 9 8 7 10 9 17 21 15 26 46 84 102 113 83 88 29 30 92 121
123 112 103 91 83 80 74 68 66 62 59 54 48 45 37 32 21 13 8 9 11 11 18 19 22 17 -1 13 24 34 86 112 144 141 102 85 65 64

GFSNE_con_3kmhel_168.txt.gz
Helicity
14 13 -7 -10 -16 -24 -40 -46 15 151 129 67 80 72 30 83 152 169 64 21 95 159 225 273 222 184 156 135 169 177 187 162 21 153 140 143 206 166
5 13 8 2 -4 -6 -11 -20 -40 -34 12 11 31 28 30 78 123 176 60 30 89 206 287 336 388 287 201 162 145 187 206 155 -3 83 136 117 157 158
13 13 20 17 5 1 -5 -2 -7 -21 -19 -43 -46 -21 39 86 151 129 81 24 33 238 379 429 461 478 458 343 173 129 149 182 150 199 243 143 145 160
8 19 19 -1 -0 -8 -16 -1 5 -8 -7 -6 -41 -33 3 57 96 102 51 68 73 169 357 473 466 509 536 571 502 322 170 156 166 246 239 225 114 63
12 17 17 5 -1 -7 -3 -0 -1 -11 -0 -8 -16 -42 -42 16 76 86 40 52 90 190 216 398 454 475 517 618 611 593 436 323 231 178 172 185 102 121
10 13 23 15 14 18 5 19 27 16 12 7 3 -1 -15 -7 17 77 78 6 62 159 189 252 422 538 565 589 660 642 593 497 443 382 358 313 268 220
29 14 17 15 8 10 -6 12 28 23 30 35 33 32 37 63 47 100 84 39 -2 83 80 217 217 338 387 547 595 641 607 569 539 484 428 376 307 298
30 24 25 41 14 8 13 8 18 21 28 35 40 60 74 68 16 10 34 82 56 93 27 77 177 249 287 367 533 616 691 694 632 506 486 402 428 373
35 34 34 34 41 12 26 21 23 36 16 13 39 54 70 95 69 10 -16 2 44 117 101 47 106 123 394 476 445 576 529 713 712 677 520 549 485 477
44 43 46 52 61 28 20 25 28 22 27 17 23 31 45 73 69 29 13 -63 -13 57 161 91 123 124 114 250 464 457 638 737 677 629 581 614 560 458
38 55 49 56 70 59 43 44 35 36 22 30 35 42 47 76 83 46 107 48 -10 12 100 87 128 133 57 61 181 408 524 673 591 725 474 637 731 605
50 54 84 56 73 81 62 53 50 46 40 35 33 37 48 58 88 55 65 73 64 9 63 91 114 136 105 26 64 190 217 511 709 586 907 564 577 482
52 51 62 62 67 69 61 48 38 18 32 28 25 25 32 40 45 62 49 42 65 20 66 27 56 90 74 102 35 70 109 138 226 353 367 385 509 482
59 62 61 54 59 74 63 64 62 44 40 40 39 36 34 37 40 44 47 34 17 40 67 84 11 30 60 60 106 84 85 58 100 170 232 236 338 402
73 68 54 54 44 52 69 74 73 60 50 51 51 44 33 26 24 23 20 6 12 22 29 50 34 34 30 28 59 77 66 37 93 133 172 202 212 216
54 70 62 54 56 52 64 67 66 62 53 45 40 37 30 31 32 31 23 29 15 18 22 38 48 24 26 15 31 62 76 66 90 99 129 115 102 104
54 73 79 82 89 90 86 76 67 60 61 54 46 43 46 49 47 41 40 32 32 41 45 40 50 18 6 27 22 39 72 75 107 127 129 118 89 101
71 94 107 114 115 105 96 85 74 67 62 56 53 49 47 50 54 52 55 52 45 44 55 60 67 39 -10 -36 36 64 51 67 101 125 148 144 106 116
100 120 129 127 120 110 97 88 85 69 55 59 59 58 52 49 54 52 62 72 72 61 38 50 69 75 62 50 1 44 79 85 93 94 98 116 150 138
120 133 132 125 117 114 104 100 85 74 68 59 67 64 57 50 50 53 47 51 60 68 71 55 55 73 80 76 70 43 41 44 101 113 121 107 105 105
131 135 128 120 117 112 105 91 90 83 68 60 57 53 50 48 45 36 32 33 30 30 41 55 58 37 13 26 70 68 61 76 40 65 103 129 140 140
136 133 129 124 119 107 99 91 79 72 67 57 52 50 41 39 40 39 38 39 38 28 22 13 20 28 41 52 56 75 80 88 86 50 -9 -14 102 144
133 132 130 122 106 95 90 86 81 74 70 61 58 55 46 47 41 40 36 37 39 41 45 38 33 27 13 30 52 52 78 102 105 103 86 85 77 80

GFSNE_con_3kmhel_174.txt.gz
Helicity
42 49 52 38 39 8 -14 -28 -28 19 2 37 -5 -11 -33 -49 -22 -18 9 40 58 62 83 100 132 161 181 207 208 227 210 179 179 106 0 213 151 135
39 49 47 47 40 16 0 -38 -41 -37 -31 -15 -10 -41 -42 -40 -7 -30 -25 -2 21 33 44 66 106 163 216 242 240 238 237 225 245 210 107 22 103 286
51 55 56 51 30 18 2 -22 -50 -54 -49 -48 -36 -38 -31 -9 16 -14 -46 -37 -45 39 43 56 78 123 183 236 277 280 264 264 289 311 275 160 139 228
55 59 49 40 35 23 -9 -16 -34 -24 -48 -33 -41 -35 -26 14 17 24 10 -36 -55 13 42 50 60 95 125 171 218 254 261 301 295 283 339 372 90 115
40 49 42 32 25 15 -1 -5 -12 -40 -41 -32 -32 -34 -23 25 65 71 22 -13 -35 17 6 50 63 71 104 142 138 175 169 190 239 242 240 371 376 284
60 41 46 32 15 17 5 -2 5 -6 -9 -18 -22 -14 -1 45 0 40 83 43 -14 2 5 -6 25 59 76 99 110 95 197 126 87 207 202 291 355 359
42 41 35 36 29 18 1 -8 1 8 4 -4 -9 -9 6 52 36 36 8 32 -14 -9 15 -31 0 -8 8 58 100 145 15 174 270 200 223 197 292 362
39 24 18 31 17 -4 13 34 19 -9 3 -3 -16 -7 4 15 28 23 13 39 -14 19 18 -57 -13 1 -31 -14 96 144 208 168 219 241 288 237 186 428
53 24 -3 -12 21 47 -20 39 39 42 6 -6 -1 -9 -6 -6 12 18 42 26 -9 -12 -36 -39 20 24 -43 -36 86 109 155 177 279 281 292 263 322 354
65 36 37 17 32 53 33 37 33 16 -6 -9 -17 -25 -20 -11 -9 -2 8 17 7 -27 -16 -22 52 60 -34 -81 62 112 162 207 261 321 289 327 263 372
81 45 36 40 57 54 42 48 35 38 31 35 53 65 70 75 69 30 75 74 42 7 37 -1 35 117 -23 -71 -40 108 121 189 237 301 352 303 277 341
51 73 81 53 57 64 50 51 56 76 73 74 65 68 72 64 85 39 35 40 66 21 87 53 54 64 -8 -30 -25 13 38 168 207 258 336 309 328 239
87 83 53 61 44 59 67 51 51 59 70 86 87 72 71 80 70 80 58 41 32 -16 16 21 20 51 -4 21 -10 18 31 40 137 203 290 275 319 267
117 98 72 45 32 49 52 66 83 83 92 95 98 92 79 97 74 84 80 41 -5 -29 -17 23 25 45 35 -4 16 50 86 3 86 177 211 245 219 238
86 76 44 18 16 30 37 79 77 85 100 112 108 104 80 73 69 76 90 74 25 -23 -27 -1 43 52 14 -6 -2 34 47 18 65 115 166 217 168 142
72 47 37 29 17 2 53 72 74 89 100 105 89 98 94 70 98 56 76 76 43 37 4 14 74 79 1 -19 -13 33 50 34 98 102 72 63 108 167
64 28 61 62 84 90 94 99 99 99 118 109 99 100 115 68 110 47 49 89 52 44 20 13 101 96 -1 -18 -7 15 53 66 90 103 74 73 83 116
72 83 101 93 106 111 122 129 140 122 110 117 97 83 103 77 79 66 27 72 95 64 36 -3 37 86 53 58 56 51 40 68 94 122 101 102 101 95
99 117 120 119 116 136 139 143 161 146 133 129 93 76 87 77 69 64 31 54 88 57 47 -5 7 63 69 62 52 81 18 47 103 136 117 110 137 189
141 142 142 132 135 160 172 173 161 145 123 105 88 74 85 84 53 55 42 26 45 47 53 38 9 42 19 3 2 49 55 20 82 117 86 92 133 119
133 146 143 148 165 182 163 146 129 117 81 88 81 73 72 85 55 48 47 52 29 33 50 64 49 40 21 0 11 50 2 86 99 82 3 26 124 116
160 153 161 167 184 178 162 137 125 139 122 107 87 78 68 74 69 54 47 51 40 29 40 49 61 51 51 28 16 41 16 29 109 161 149 96 29 83
157 158 174 160 147 152 148 168 150 129 115 96 87 77 74 67 71 65 54 52 50 37 48 53 64 51 56 45 41 47 34 39 65 118 129 201 111 174